sat.trackr.live / text

‹ back to catalog

STARLINK-1882

NORAD 46784 · 2020-074AX

PAYLOAD ACTIVE UNKNOWN

§ Identity

Operator
Country
US
Launch date
2020-10-24
Launch site
AFETR
Launch vehicle
Mass (kg)
RCS (m²)

Purposes: comms

External: N2YO · Heavens-Above · Gunter

§ Orbital elements

Epoch: 2026-07-06T15:52:23.836800Z

Period
87.81 min
Inclination
53.0244°
Eccentricity
0.0011047
Mean motion
16.39899092 rev/d
Perigee alt
158.8 km
Apogee alt
173.3 km
Semi-major
6,544.2 km
B*
6.9707e-4
RAAN
38.3139°
Arg perigee
266.1784°
Mean anomaly
93.7999°
Rev number
31,613

§ Raw data

STARLINK-18821 46784U 20074AX  26187.66138700  .09735311  12347-4  69707-3 0  99992 46784  53.0244  38.3139 0011047 266.1784  93.7999 16.39899092316139

JSON: /api/v1/satellites/46784 · /tle

For live sub-satellite position, see the globe view (requires WebGL).

§ Visibility from observer

Set your observer location to see the next 7 days of passes ≥ 10°. The values pass through the URL so the page stays shareable.

No JS? Fill the form by hand. The geolocation button needs JavaScript.